Regional Weather Roundup
Issued by NWS Green Bay, WI

Home | Current Version | Previous Version | Graphics & Text | Print | Product List | Glossary Off
Versions: 1 2 3 4 5 6 7 8 9 10 11 12 13 14 15 16 17 18 19 20 21 22 23 24 25 26 27 28 29 30 31 32 33 34 35 36 37 38 39 40 41 42 43 44 45 46 47 48 49 50

000
ASUS43 KGRB 230210
RWRGRB

NORTH-CENTRAL AND NORTHEAST WISCONSIN REGIONAL WEATHER ROUNDUP
NATIONAL WEATHER SERVICE GREEN BAY WI
900 PM CDT TUE APR 22 2014

WIZ005-009-010>012-018-019-230300-
NORTH CENTRAL WISCONSIN

CITY           SKY/WX    TMP DP  RH WIND       PRES   REMARKS
IRONWOOD       CLEAR     36  27  69 CALM      30.05R
MANITOWISH WTR CLEAR     32  28  85 CALM      30.06R
ARBOR VITAE    CLEAR     32  17  53 CALM      30.07R
EAGLE RIVER    CLEAR     31  23  71 CALM      30.06R
LAND O LAKES   CLEAR     30  26  83 CALM      30.07R
RHINELANDER    CLEAR     34  23  64 CALM      30.07R
PHILLIPS       CLEAR     38  24  57 CALM      30.06R
ANTIGO         CLEAR     35  28  74 NW3       30.07R
TOMAHAWK       CLEAR     37  24  60 CALM      30.07R
MERRILL        CLEAR     38  24  57 N3        30.07R
$$

WIZ013-073-230300-
NORTHEAST WISCONSIN

CITY           SKY/WX    TMP DP  RH WIND       PRES   REMARKS
IRON MOUNTAIN  CLEAR     32  23  69 N5        30.07R
MARINETTE      CLEAR     37  27  65 N7        30.06R
OCONTO         CLEAR     38  27  64 N3        30.07R
$$

WIZ017-030-035>037-045-230300-
CENTRAL WISCONSIN

CITY           SKY/WX    TMP DP  RH WIND       PRES   REMARKS
MEDFORD        CLEAR     40  26  59 NE5       30.08R
WAUSAU         CLEAR     42  25  50 NE5       30.05R
MOSINEE        CLEAR     43  25  49 N6        30.07R
MARSHFIELD     CLEAR     44  25  47 NE6       30.06R
WISC RAPIDS    CLEAR     45  25  45 NE9       30.07R
STEVENS POINT  CLEAR     40  24  52 N5        30.07R
WAUPACA        CLEAR     45  27  49 N7        30.07R
SHAWANO        CLEAR     42  26  53 CALM      30.07R
CLINTONVILLE   CLEAR     43  27  52 N6        30.07R
$$

WIZ038-039-048-051-230300-
FOX VALLEY

CITY           SKY/WX    TMP DP  RH WIND       PRES   REMARKS
NWS GREEN BAY  CLEAR     39  28  64 N10       30.07R
APPLETON       PTCLDY    43  27  52 N10       30.06R
OSHKOSH        CLEAR     45  26  47 NE9       30.05R
FOND DU LAC    CLEAR     44  30  57 N14       30.06R
$$

WIZ022-050-052-230300-
EAST CENTRAL WISCONSIN

CITY           SKY/WX    TMP DP  RH WIND       PRES   REMARKS
STURGEON BAY   MOCLDY    36  27  69 N14       30.07R
MANITOWOC      CLEAR     41  29  62 N9        30.06R
SHEBOYGAN      CLEAR     42  28  57 N9        30.05R
$$

LMZ563-521-522-541>543-230300-
LAKESHORE

STATION/POSITION TIME  TEMP    WIND        PRES    VSBY  WAVE
                       AIR SEA DIR/SP/G                  HT/PER
                 (UTC) (F)     (DEG/KT/KT) (MB)    (MI)  (FT/S)
SHEBOYGAN LKSHOR 0200   42      20/ 13/ 14 1018.5R
KEWAUNEE LKSHORE 0200   40     350/  7/  8 1018.3R
NORTHPORT PIER   0200   34     340/ 14/ 18 1017.9S
SISTER BAY LKSHO 0100   36     360/ 18/ 24   N/A
MENOMINEE LKSHOR 0200   37     350/ 14/ 16 1018.6R
$$



USA.gov is the U.S. government's official web portal to all federal, state and local government web resources and services.